EW4973 Weather Reports


Display with metric or nautical units.
time (UTC)temp
F
wind
direction
speed
MPH
gust
MPH
rain 1hr
in
rain 24hr
in
rain mn
in
humidity
%
barometer
mb
20260906043025 73 45 2.0 7.0 0.00 0.04 0.00 88 1010.0
20260906041527 73 15 2.0 8.0 0.00 0.04 0.00 88 1009.9
20260906040026 73 67 1.0 8.0 0.00 0.04 0.00 88 1009.8
20260906034521 73 71 3.0 7.0 0.00 0.04 0.04 88 1009.8
20260906033017 73 38 2.0 8.0 0.00 0.04 0.04 88 1009.8
20260906031528 73 69 4.0 9.0 0.00 0.04 0.04 88 1009.7
20260906030015 74 105 4.0 7.0 0.00 0.04 0.04 88 1009.7
20260906024514 74 73 2.0 7.0 0.00 0.04 0.04 88 1009.7
20260906023013 74 80 4.0 9.0 0.00 0.04 0.04 88 1009.6
20260906021513 75 78 4.0 9.0 0.00 0.04 0.04 87 1009.5
20260906020012 75 343 4.0 9.0 0.00 0.04 0.04 88 1009.3
20260906014516 74 273 5.0 9.0 0.00 0.04 0.04 88 1009.3
20260906013011 74 109 6.0 9.0 0.00 0.04 0.04 88 1008.6
20260906011509 73 85 2.0 5.0 0.00 0.04 0.04 88 1008.6
20260906010008 73 342 0.0 2.0 0.00 0.04 0.04 86 1008.3
20260906004507 73 342 0.0 2.0 0.00 0.04 0.04 85 1008.1
20260906003007 74 25 0.0 1.0 0.00 0.04 0.04 85 1008.0
20260906001506 74 25 0.0 2.0 0.00 0.04 0.04 85 1007.7
20260906000006 75 360 1.0 3.0 0.00 0.04 0.04 84 1007.7
20260905234506 75 342 0.0 4.0 0.00 0.04 0.04 82 1007.6
20260905233004 75 323 1.0 4.0 0.00 0.04 0.04 82 1007.7
20260905231504 75 289 1.0 5.0 0.00 0.04 0.04 82 1007.9
20260905230004 76 67 4.0 10.0 0.00 0.04 0.04 82 1008.3
20260905224503 78 59 3.0 7.0 0.00 0.04 0.04 76 1008.4
20260905223002 80 34 5.0 11.0 0.00 0.04 0.04 73 1007.8
20260905221501 83 311 9.0 22.0 0.00 0.04 0.04 68 1007.3
20260905220001 88 306 3.0 9.0 0.00 0.04 0.04 66 1006.9
20260905214607 88 247 5.0 10.0 0.00 0.04 0.04 64 1006.9
20260905213104 88 295 5.0 10.0 0.00 0.04 0.04 64 1006.5
20260905211558 89 281 6.0 9.0 0.00 0.04 0.04 64 1006.8
20260905210106 88 203 4.0 9.0 0.00 0.04 0.04 65 1007.1
20260905204553 88 300 4.0 8.0 0.00 0.04 0.04 64 1007.2
20260905203053 90 298 3.0 9.0 0.00 0.04 0.04 61 1007.3
20260905201551 91 302 3.0 7.0 0.00 0.04 0.04 59 1007.7
20260905200058 90 307 2.0 7.0 0.00 0.04 0.04 60 1007.6
20260905194548 90 261 0.0 7.0 0.00 0.04 0.04 60 1007.7
20260905193044 90 269 2.0 6.0 0.00 0.04 0.04 59 1007.9
20260905191544 90 199 1.0 6.0 0.00 0.04 0.04 61 1008.2
20260905190048 89 273 1.0 5.0 0.00 0.04 0.04 62 1008.3
20260905184540 89 218 1.0 5.0 0.00 0.04 0.04 62 1008.5
20260905183036 88 228 1.0 5.0 0.00 0.04 0.04 63 1008.7
20260905181535 87 198 2.0 5.0 0.00 0.04 0.04 63 1008.9
20260905180044 86 177 1.0 6.0 0.00 0.04 0.04 66 1008.9
20260905174526 84 206 1.0 5.0 0.00 0.04 0.04 69 1009.0
20260905173022 83 207 1.0 6.0 0.00 0.04 0.04 72 1009.2
20260905171522 81 203 1.0 5.0 0.01 0.04 0.04 79 1009.3
20260905170018 79 170 0.0 6.0 0.04 0.04 0.04 83 1009.7
20260905164517 77 198 1.0 5.0 0.04 0.04 0.04 85 1009.8
20260905163016 75 179 0.0 2.0 0.04 0.04 0.04 86 1010.0
20260905161523 77 198 3.0 14.0 0.03 0.03 0.03 79 1009.8
20260905160014 81 261 4.0 8.0 0.00 0.00 0.00 68 1010.8
20260905154510 81 215 2.0 6.0 0.00 0.00 0.00 69 1010.1
20260905153006 80 207 5.0 8.0 0.00 0.00 0.00 70 1010.0
20260905151502 79 190 2.0 9.0 0.00 0.00 0.00 71 1009.9
20260905150057 79 183 4.0 10.0 0.00 0.00 0.00 74 1009.8
20260905144553 78 178 3.0 10.0 0.00 0.00 0.00 76 1009.9
20260905143049 77 214 5.0 15.0 0.00 0.00 0.00 76 1009.9
20260905141546 76 175 6.0 13.0 0.00 0.00 0.00 77 1010.0
20260905140042 75 202 5.0 10.0 0.00 0.00 0.00 79 1010.1
20260905134544 74 135 9.0 14.0 0.00 0.00 0.00 78 1010.3
20260905133038 73 134 6.0 10.0 0.00 0.00 0.00 80 1010.5
20260905131537 73 130 8.0 14.0 0.00 0.00 0.00 80 1010.6
20260905130031 72 150 6.0 12.0 0.00 0.00 0.00 82 1010.5
20260905124528 72 127 6.0 11.0 0.00 0.00 0.00 82 1010.2
20260905123024 71 132 5.0 8.0 0.00 0.00 0.00 84 1010.1
20260905121521 70 138 4.0 8.0 0.00 0.00 0.00 85 1010.0
20260905120030 69 142 6.0 10.0 0.00 0.00 0.00 85 1010.0
20260905114514 69 129 7.0 11.0 0.00 0.00 0.00 85 1010.0
20260905113014 69 109 4.0 7.0 0.00 0.00 0.00 85 1010.3
20260905111515 70 86 6.0 13.0 0.00 0.00 0.00 85 1010.1
20260905110017 70 45 7.0 18.0 0.00 0.00 0.00 85 1010.1
20260905104509 70 107 8.0 15.0 0.00 0.00 0.00 85 1010.2
20260905103011 70 104 7.0 13.0 0.00 0.00 0.00 85 1010.3
20260905101501 71 49 8.0 12.0 0.00 0.00 0.00 85 1010.2
20260905100101 71 81 8.0 21.0 0.00 0.00 0.00 86 1010.0
20260905094554 73 53 5.0 10.0 0.00 0.00 0.00 87 1009.4
20260905093107 72 198 0.0 1.0 0.00 0.00 0.00 87 1008.9
20260905091555 72 198 0.0 0.0 0.00 0.00 0.00 88 1008.8
20260905090049 73 198 0.0 1.0 0.00 0.00 0.00 88 1008.8
20260905084547 73 198 0.0 1.0 0.00 0.00 0.00 88 1008.7
20260905083046 73 198 0.0 1.0 0.00 0.00 0.00 88 1008.7
20260905081545 74 198 0.0 0.0 0.00 0.00 0.00 88 1008.7
20260905080045 74 197 0.0 0.0 0.00 0.00 0.00 88 1008.5
20260905074544 75 198 0.0 1.0 0.00 0.00 0.00 87 1008.4
20260905073043 75 198 0.0 1.0 0.00 0.00 0.00 87 1008.2
20260905071546 75 197 3.0 5.0 0.00 0.00 0.00 87 1007.8
20260905070050 75 201 0.0 5.0 0.00 0.00 0.00 87 1007.9
20260905064547 75 188 2.0 6.0 0.00 0.00 0.00 88 1008.0
20260905063035 74 194 2.0 6.0 0.00 0.00 0.00 88 1008.2
20260905061532 74 141 0.0 2.0 0.00 0.00 0.00 88 1008.6
20260905060030 74 140 0.0 1.0 0.00 0.00 0.00 88 1008.8
20260905054536 74 140 0.0 0.0 0.00 0.00 0.00 88 1008.9
20260905053027 74 140 0.0 0.0 0.00 0.00 0.00 88 1009.0
20260905051538 74 140 0.0 1.0 0.00 0.00 0.00 88 1009.1
20260905050023 74 140 0.0 1.0 0.00 0.00 0.00 88 1009.2
20260905044523 74 140 0.0 0.0 0.00 0.00 0.00 88 1009.1